NIEUW!!! Volg onze weer- en natuurfoto's op Instagram @ weerstationmaaseik.be

WS Maaseik 1 Meer informatie WS Maaseik 1


WS Maaseik 2 Meer informatie WS Maaseik 2


Regen radar Meer informatie rain snow radar


Bezoek onze andere website:

Vorige versie
weerstation Maaseik


Bezoek ook eens deze sites:

Weerstation Geleen

Weerstation Luyksgestel



Het weer levert geen direct gevaar op.    Er zijn geen waarschuwingen afgegeven.

15 daagse weersverwachting Purmerend (NL)

  • Overzicht
  • Per uur
  • 15 dagen
  • Extra
  • Vergelijk
  • Kaarten
  • Dagkaart
  • Meer »
  • Info
  • Statistieken
  • Directe link
    Temp 6h Neerslag Wind  
 08:22     18:28    Daglengte: 10:06 Vandaag
14:00
13°
 
4
20:00
13°
 
4
 08:23     18:26    Daglengte: 10:03 Morgen
02:00
13°
 
3
08:00
12°
 
3
14:00
16°
 
6
20:00
15°
 
8
 08:25     18:24    Daglengte: 9:59 Vrijdag 25 Okt
02:00
13°
0.4 mm
6
08:00
11°
 
5
14:00
15°
 
7
20:00
14°
 
9
 08:27     18:22    Daglengte: 9:55 Zaterdag 26 Okt
02:00
14°
0.2 mm
10
Locatie info
Region: Noord-Holland
Latitude: 52.5077°N
Longitude: 4.9478°E
2 masl
Postcode: 1441
Temp/Neerslag /Baro Onweer/Dauwpunt
    Temp Baro 1h Neerslag Dauwpunt Wind UV Bewolking  
 08:22     18:28    Daglengte: 10:06 Vandaag
09:00
Voelt als: 7.7°
1019.2 hPa   8.7°
2
Windvlaag: 0.6 m/s
88%
10:00
Voelt als: 8.3°
1018.7 hPa   9.3°
2
Windvlaag: 0.6 m/s
87%
11:00
10°
1018.1 hPa   9.8°
3
Windvlaag: 0.7 m/s
84%
12:00
11°
1017.6 hPa   10.3°
3
Windvlaag: 0.4 m/s
79%
13:00
12°
1017.0 hPa   10.4°
3
Windvlaag: -0.3 m/s
65%
14:00
13°
1016.0 hPa   10.6°
4
Windvlaag: -0.5 m/s
74%
15:00
13°
1014.8 hPa   10.6°
4
Windvlaag: -0.4 m/s
27%
16:00
13°
1013.5 hPa   10.7°
5
Windvlaag: -0.4 m/s
11%
17:00
14°
1012.5 hPa   11.0°
4
Windvlaag: -0.3 m/s
44%
18:00
13°
1011.8 hPa   10.9°
4
Windvlaag: -0 m/s
47%
19:00
13°
1011.4 hPa
26%
10.9°
4
Windvlaag: 0.3 m/s
70%
20:00
13°
1011.0 hPa
40%
11.1°
4
Windvlaag: 0.8 m/s
76%
21:00
13°
1010.0 hPa
11%
11.3°
4
Windvlaag: 1.4 m/s
70%
22:00
13°
1009.5 hPa
11%
11.6°
4
Windvlaag: 1.8 m/s
71%
23:00
13°
1008.8 hPa
23%
11.6°
4
Windvlaag: 1.4 m/s
61%
 08:23     18:26    Daglengte: 10:03 Morgen
00:00
13°
1008.2 hPa
24%
11.9°
4
Windvlaag: 1.2 m/s
61%
01:00
13°
1007.7 hPa
12%
11.9°
3
Windvlaag: 1.2 m/s
56%
02:00
13°
1007.2 hPa   11.7°
3
Windvlaag: 1.2 m/s
75%
03:00
12°
1006.8 hPa   11.6°
3
Windvlaag: 1.5 m/s
62%
04:00
12°
1006.3 hPa   11.5°
3
Windvlaag: 3 m/s
68%
05:00
12°
1005.6 hPa   11.2°
3
Windvlaag: 2.9 m/s
32%
06:00
12°
1005.4 hPa   11.3°
3
Windvlaag: 1.4 m/s
90%
07:00
12°
1005.1 hPa   11.2°
3
Windvlaag: 1.7 m/s
87%
08:00
12°
1004.9 hPa
14%
11.1°
3
Windvlaag: 3 m/s
77%
09:00
12°
1005.2 hPa
14%
11.1°
4
Windvlaag: 3.2 m/s
84%
10:00
13°
1005.3 hPa
13%
11.5°
4
Windvlaag: 3.3 m/s
77%
11:00
14°
1005.3 hPa   12.0°
5
Windvlaag: 4.6 m/s
79%
12:00
15°
1004.9 hPa
22%
12.6°
4
Windvlaag: 4.4 m/s
86%
13:00
16°
1004.9 hPa
59%
13.2°
5
Windvlaag: 4.8 m/s
89%
14:00
16°
1004.5 hPa
58%
13.5°
6
Windvlaag: 5.4 m/s
80%
15:00
17°
1004.3 hPa
56%
13.7°
7
Windvlaag: 5.2 m/s
32%
16:00
17°
1004.3 hPa
11%
13.4°
7
Windvlaag: 5.9 m/s
20%
17:00
17°
1004.3 hPa
14%
13.3°
7
Windvlaag: 5.9 m/s
40%
18:00
16°
1004.4 hPa
12%
12.6°
6
Windvlaag: 5.8 m/s
20%
19:00
15°
1004.7 hPa
17%
12.1°
6
Windvlaag: 5.6 m/s
37%
20:00
15°
1005.1 hPa
28%
11.9°
8
Windvlaag: 6.6 m/s
57%
21:00
14°
1005.7 hPa 0.4 mm
22%
11.9°
8
Windvlaag: 8 m/s
79%
22:00
14°
1006.5 hPa
73%
10.9°
6
Windvlaag: 5.9 m/s
52%
23:00
13°
1007.5 hPa
77%
10.8°
7
Windvlaag: 4.5 m/s
66%
 08:25     18:24    Daglengte: 9:59 Vrijdag 25 Okt
00:00
13°
1008.5 hPa
15%
10.0°
7
Windvlaag: 5.1 m/s
49%
01:00
13°
1009.3 hPa
15%
10.6°
7
Windvlaag: 5.1 m/s
27%
02:00
13°
1010.0 hPa
20%
10.6°
6
Windvlaag: 3.8 m/s
52%
03:00
13°
1010.5 hPa
19%
10.1°
5
Windvlaag: 5.1 m/s
56%
04:00
12°
1010.9 hPa
29%
9.7°
5
Windvlaag: 5.5 m/s
74%
05:00
12°
1012.4 hPa
25%
9.5°
5
Windvlaag: 5.7 m/s
33%
06:00
11°
1013.2 hPa
37%
9.2°
6
Windvlaag: 5.7 m/s
76%
07:00
11°
1014.0 hPa
35%
8.8°
5
Windvlaag: 5.5 m/s
79%
08:00
11°
1014.8 hPa
30%
8.5°
5
Windvlaag: 4.9 m/s
83%
09:00
11°
1015.7 hPa
32%
8.3°
5
Windvlaag: 4.6 m/s
92%
10:00
12°
1016.5 hPa
81%
8.9°
5
Windvlaag: 4.1 m/s
70%
11:00
13°
1016.9 hPa
36%
9.7°
6
Windvlaag: 4.5 m/s
78%
12:00
14°
1017.2 hPa
36%
9.3°
7
Windvlaag: 4.8 m/s
88%
13:00
14°
1017.5 hPa
33%
9.0°
7
Windvlaag: 4.9 m/s
89%
14:00
15°
1017.3 hPa
32%
9.4°
7
Windvlaag: 4.7 m/s
93%
15:00
15°
1017.0 hPa
24%
10.0°
7
Windvlaag: 4.6 m/s
91%
16:00
15°
1016.6 hPa
34%
9.9°
6
Windvlaag: 4.4 m/s
98%
17:00
14°
1016.1 hPa
40%
10.0°
6
Windvlaag: 4.6 m/s
96%
18:00
14°
1015.4 hPa
100%
9.1°
7
Windvlaag: 4.8 m/s
95%
19:00
13°
1014.9 hPa
96%
8.2°
8
Windvlaag: 5.8 m/s
87%
20:00
14°
1014.0 hPa
32%
8.1°
9
Windvlaag: 6.3 m/s
97%
21:00
14°
1013.2 hPa
27%
8.3°
9
Windvlaag: 14.4 m/s
94%
22:00
14°
1012.7 hPa
21%
8.6°
9
Windvlaag: 14.8 m/s
97%
23:00
14°
1012.2 hPa
21%
8.8°
9
Windvlaag: 15.1 m/s
98%
 08:27     18:22    Daglengte: 9:55 Zaterdag 26 Okt
00:00
14°
1011.7 hPa
37%
9.0°
10
Windvlaag: 15.9 m/s
98%
01:00
14°
1011.2 hPa 0.2 mm
97%
9.3°
10
Windvlaag: 16.6 m/s
100%
02:00
14°
1010.7 hPa
97%
9.6°
10
Windvlaag: 8.5 m/s
99%
03:00
14°
1009.5 hPa 0.5 mm
100%
9.9°
10
Windvlaag: 18.5 m/s
99% warningclass
04:00
14°
1009.2 hPa 0.6 mm
100%
10.2°
10
Windvlaag: 18.5 m/s
99% warningclass
05:00
14°
1009.0 hPa 0.4 mm
100%
10.4°
9
Windvlaag: 18.3 m/s
100% warningclass
06:00
14°
1008.9 hPa 1.8 mm
100%
10.3°
9
Windvlaag: 18.1 m/s
100% warningclass
07:00
14°
1008.9 hPa 1.5 mm
100%
10.5°
8
Windvlaag: 16.8 m/s
100%
08:00
13°
1009.3 hPa 1.7 mm
100%
9.8°
7
Windvlaag: 1.5 m/s
100%
Temp/Neerslag /Baro Onweer/Dauwpunt
    Temp Baro Neerslag Dauwpunt Wind Bewolking  
 08:22     18:28    Daglengte: 10:06 Vandaag
11:00
10°
1018.1 hPa   9.8°
3
84%
14:00
13°
1016.0 hPa   10.6°
4
74%
17:00
14°
1012.5 hPa   11.0°
4
44%
20:00
13°
1011.0 hPa   11.1°
4
76%
23:00
13°
1008.8 hPa   11.6°
4
61%
 08:23     18:26    Daglengte: 10:03 Morgen
02:00
13°
1007.2 hPa   11.7°
3
75%
05:00
12°
1005.6 hPa   11.2°
3
32%
08:00
12°
1004.9 hPa   11.1°
3
77%
11:00
14°
1005.3 hPa   12.0°
5
79%
14:00
16°
1004.5 hPa   13.5°
6
80%
17:00
17°
1004.3 hPa   13.3°
7
40%
20:00
15°
1005.1 hPa   11.9°
8
57%
23:00
13°
1007.5 hPa 0.4 mm 10.8°
7
66%
 08:25     18:24    Daglengte: 9:59 Vrijdag 25 Okt
02:00
13°
1010.0 hPa   10.6°
6
52%
05:00
12°
1012.4 hPa   9.5°
5
33%
08:00
11°
1014.8 hPa   8.5°
5
83%
11:00
13°
1016.9 hPa   9.7°
6
78%
14:00
15°
1017.3 hPa   9.4°
7
93%
17:00
14°
1016.1 hPa   10.0°
6
96%
20:00
14°
1014.0 hPa   8.1°
9
97%
23:00
14°
1012.2 hPa   8.8°
9
98%
 08:27     18:22    Daglengte: 9:55 Zaterdag 26 Okt
02:00
14°
1010.7 hPa 0.2 mm 9.6°
10
99%
05:00
14°
1009.0 hPa 1.4 mm 10.4°
9
100% warningclass
08:00
13°
1009.3 hPa 4.9 mm 9.8°
7
100%
11:00
15°
1011.2 hPa 5.3 mm 11.2°
9
91%
14:00
15°
1011.1 hPa 5.9 mm 11.5°
9
90%
17:00
15°
1011.1 hPa 6.3 mm 11.6°
9
91%
20:00
15°
1011.2 hPa 6.5 mm 11.8°
9
92%
23:00
12°
1013.3 hPa 6.6 mm 9.7°
7
92%
 08:29     18:20    Daglengte: 9:51 Zondag 27 Okt
02:00
Voelt als: 6.9°
1015.3 hPa 6.7 mm 7.6°
5
92%
04:00
Voelt als: 7.2°
1016.8 hPa 6.7 mm 6.1°
4
92%
07:00
Voelt als: 7.5°
1018.3 hPa 6.7 mm 4.4°
3
92%
10:00
11°
1020.2 hPa 6.8 mm 4.4°
4
92%
13:00
12°
1022.0 hPa 7.0 mm 4.0°
5
92%
16:00
10°
1022.7 hPa 7.0 mm 4.2°
3
89%
19:00
Voelt als: 7.6°
1023.3 hPa 7.3 mm 4.4°
2
86%
22:00
Voelt als: 6.8°
1023.5 hPa 7.4 mm 4.2°
2
62%
 08:31     18:18    Daglengte: 9:47 Maandag 28 Okt
01:00
Voelt als: 6.0°
1023.6 hPa 7.5 mm 4.1°
2
38%
04:00
Voelt als: 4.9°
1023.3 hPa 7.5 mm 4.3°
3
33%
07:00
Voelt als: 3.9°
1023.1 hPa 7.5 mm 4.6°
3
29%
10:00
Voelt als: 6.4°
1023.4 hPa 7.6 mm 4.8°
4
26%
13:00
11°
1023.7 hPa 7.8 mm 4.7°
4
23%
16:00
Voelt als: 6.7°
1024.1 hPa 7.9 mm 4.7°
4
25%
19:00
Voelt als: 4.5°
1024.5 hPa 8.0 mm 4.3°
3
27%
22:00
Voelt als: 4.1°
1024.8 hPa 8.0 mm 3.8°
3
20%
 08:33     18:16    Daglengte: 9:43 Dinsdag 29 Okt
01:00
Voelt als: 3.7°
1025.0 hPa 8.1 mm 3.3°
2
14%
04:00
Voelt als: 3.3°
1025.3 hPa 8.1 mm 3.7°
3
23%
07:00
Voelt als: 2.9°
1025.6 hPa 8.2 mm 4.1°
3
32%
10:00
Voelt als: 5.3°
1027.0 hPa 8.3 mm 4.4°
4
26%
13:00
10°
Voelt als: 7.6°
1028.3 hPa 8.4 mm 3.8°
5
21%
16:00
Voelt als: 5.8°
1029.8 hPa 8.4 mm 3.2°
5
14%
19:00
Voelt als: 3.7°
1031.4 hPa 8.4 mm 2.5°
4
7%
22:00
Voelt als: 2.8°
1032.6 hPa 8.4 mm 2.1°
4
4%
 08:34     18:14    Daglengte: 9:40 Woensdag 30 Okt
01:00
Voelt als: 1.9°
1033.7 hPa 8.4 mm 1.6°
4
0%
04:00
Voelt als: 0.8°
1033.6 hPa 8.4 mm 1.3°
3
0%
07:00
Voelt als: -0.2°
1033.6 hPa 16.8 mm 1.0°
2
1%
13:00
Voelt als: 6.4°
1033.5 hPa 17.0 mm 0.9°
2
59%
19:00
Voelt als: 2.3°
1031.2 hPa 17.3 mm 1.4°
3
2%
 08:36     18:12    Daglengte: 9:36 Donderdag 31 Okt
01:00
Voelt als: 1.2°
1029.9 hPa 17.4 mm 0.9°
1
53%
07:00
Voelt als: 2.2°
1027.0 hPa 17.4 mm 1.5°
1
70%
13:00
Voelt als: 8.8°
1024.5 hPa 17.4 mm 5.2°
1
75%
19:00
Voelt als: 4.7°
1021.2 hPa 17.5 mm 4.2°
2
34%
 08:38     18:10    Daglengte: 9:32 Vrijdag 01 Nov
01:00
Voelt als: 3.7°
1017.0 hPa 19.5 mm 4.2°
2
72%
07:00
Voelt als: 3.4°
1013.3 hPa 21.0 mm 3.9°
4
21%
13:00
Voelt als: 6.4°
1013.3 hPa 22.3 mm 4.8°
6
60%
19:00
Voelt als: 4.0°
1010.0 hPa 22.7 mm 3.5°
7
1%
 08:40     18:08    Daglengte: 9:28 Zaterdag 02 Nov
01:00
Voelt als: 4.0°
1011.8 hPa 23.4 mm 2.1°
5
1%
07:00
10°
1013.4 hPa 1.1 mm 7.2°
3
67%
13:00
11°
1012.2 hPa 1.1 mm 7.0°
4
69%
19:00
11°
1010.7 hPa 1.7 mm 7.0°
6
64%
 08:42     18:07    Daglengte: 9:25 Zondag 03 Nov
01:00
Voelt als: 6.8°
1011.6 hPa 0.9 mm 5.0°
4
59%
07:00
Voelt als: 6.1°
1012.2 hPa 1.3 mm 4.4°
4
69%
13:00
10°
Voelt als: 8.2°
1013.2 hPa 1.3 mm 4.6°
3
68%
19:00
Voelt als: 7.2°
1013.4 hPa 0.9 mm 4.3°
2
59%
 08:44     18:05    Daglengte: 9:21 Maandag 04 Nov
01:00
Voelt als: 6.4°
1013.2 hPa 0.9 mm 3.9°
3
62%
07:00
Voelt als: 5.9°
1013.6 hPa 0.6 mm 4.0°
3
66%
13:00
Voelt als: 7.5°
1014.9 hPa 1.3 mm 4.3°
4
65%
19:00
Voelt als: 6.8°
1016.0 hPa 0.9 mm 4.3°
3
58%
 08:46     18:03    Daglengte: 9:17 Dinsdag 05 Nov
01:00
Voelt als: 7.3°
1016.6 hPa 0.8 mm 4.2°
2
58%
07:00
Voelt als: 5.7°
1017.0 hPa 0.8 mm 3.5°
3
57%
13:00
Voelt als: 7.8°
1018.3 hPa 0.5 mm 3.5°
2
53%
19:00
Voelt als: 8.0°
1018.4 hPa 0.5 mm 3.3°
1
51%
 08:47     18:01    Daglengte: 9:14 Woensdag 06 Nov
01:00
Voelt als: 7.0°
1018.2 hPa 0.5 mm 3.2°
1
55%
07:00
Voelt als: 6.9°
1017.3 hPa 0.6 mm 3.2°
1
53%
13:00
Voelt als: 8.5°
1017.0 hPa 1.0 mm 3.4°
1
54%
19:00
Voelt als: 8.0°
1016.5 hPa 0.2 mm 3.9°
1
48%
 08:49     17:59    Daglengte: 9:10 Donderdag 07 Nov
01:00
Voelt als: 6.6°
1016.8 hPa 0.8 mm 3.3°
1
52%
07:00
Voelt als: 4.7°
1016.3 hPa 0.1 mm 2.8°
3
48%
  CAPE Lifted Index Hail Supercell Tornado SRH 3km CL BTM PRES CL TOP PRES Swiss DWD icon SMHI TS
 08:22     18:28    Daglengte: 10:06 Vandaag
09:00 1 J/kg 11.6 K 0 % 0 % 0 % 0 m²/s² 0 0 13.22 3
10:00 2 J/kg 8.5 K 0 % 0 % 0 % 0 m²/s² 0 0 10.03 3
11:00 2 J/kg 7.0 K 0 % 0 % 0 % 0 m²/s² 0 0 7.69 3
12:00 1 J/kg 6.8 K 0 % 0 % 0 % 0 m²/s² 0 0 7.22 3
13:00 0 J/kg 4.7 K 0 % 0 % 0 % 0 m²/s² 0 0 5.27 2
14:00 0 J/kg 3.6 K 0 % 0 % 0 % 0 m²/s² 0 0 4.17 3
15:00 0 J/kg 2.9 K 0 % 0 % 0 % 0 m²/s² 0 0 3.74 2
16:00 0 J/kg 3.2 K 0 % 0 % 0 % 0 m²/s² 0 0 4.4 2
17:00 0 J/kg 3.8 K 0 % 0 % 0 % 0 m²/s² 0 0 4.73 2
18:00 0 J/kg 3.5 K 0 % 0 % 0 % 0 m²/s² 0 0 5.09 2
19:00 0 J/kg 3.3 K 0 % 0 % 0 % 0 m²/s² 0 0 4.29 3
20:00 0 J/kg 3.6 K 0 % 0 % 0 % 0 m²/s² 0 0 4.26 3
21:00 0 J/kg 3.3 K 0 % 0 % 0 % 0 m²/s² 0 0 3.96 3
22:00 0 J/kg 2.8 K 0 % 0 % 0 % 0 m²/s² 0 0 3.52 3
23:00 0 J/kg 3.4 K 0 % 0 % 0 % 0 m²/s² 0 0 4.03 3
 08:23     18:26    Daglengte: 10:03 Morgen
00:00 0 J/kg 3.1 K 0 % 0 % 0 % 0 m²/s² 0 0 4.21 3
01:00 0 J/kg 3.3 K 0 % 0 % 0 % 0 m²/s² 0 0 4.65 3
02:00 0 J/kg 3.5 K 0 % 0 % 0 % 0 m²/s² 0 0 3.71 3
03:00 0 J/kg 4.3 K 0 % 0 % 0 % 0 m²/s² 0 0 4.93 2
04:00 0 J/kg 4.6 K 0 % 0 % 0 % 0 m²/s² 0 0 5.08 3
05:00 0 J/kg 4.2 K 0 % 0 % 0 % 0 m²/s² 0 0 4.29 45
06:00 0 J/kg 4.3 K 0 % 0 % 0 % 0 m²/s² 0 0 4.3 3
07:00 0 J/kg 4.0 K 0 % 0 % 0 % 0 m²/s² 0 0 4.12 3
08:00 0 J/kg 4.1 K 0 % 0 % 0 % 0 m²/s² 0 0 4.52 3
09:00 0 J/kg 4.0 K 0 % 0 % 0 % 0 m²/s² 0 0 4.18 3
10:00 0 J/kg 3.2 K 0 % 0 % 0 % 0 m²/s² 0 0 3.47 3
11:00 0 J/kg 2.4 K 0 % 0 % 0 % 0 m²/s² 0 0 3.21 3
12:00 0 J/kg 2.0 K 0 % 0 % 0 % 0 m²/s² 0 0 3.32 3
13:00 0 J/kg 5.0 K 0 % 0 % 0 % 0 m²/s² 0 0 7.07 61
14:00 0 J/kg 3.7 K 0 % 0 % 0 % 0 m²/s² 0 0 11.41 3
15:00 0 J/kg 3.8 K 0 % 0 % 0 % 0 m²/s² 0 0 11.24 2
16:00 0 J/kg 3.2 K 0 % 0 % 0 % 0 m²/s² 0 0 9.68 1
17:00 14 J/kg 1.6 K 0 % 0 % 0 % 0 m²/s² 0 0 4.66 3
18:00 8 J/kg 1.0 K 0 % 0 % 0 % 0 m²/s² 0 0 5.29 2
19:00 14 J/kg 2.6 K 0 % 0 % 0 % 0 m²/s² 0 0 3.83 2
20:00 0 J/kg 1.3 K 0 % 0 % 0 % 0 m²/s² 0 0 2.29 2
21:00 14 J/kg 4.1 K 0 % 0 % 0 % 0 m²/s² 0 0 5.03 2
22:00 26 J/kg 5.1 K 0 % 0 % 0 % 0 m²/s² 0 0 6.93 3
23:00 57 J/kg 4.8 K 0 % 0 % 0 % 0 m²/s² 0 0 10.92 3
 08:25     18:24    Daglengte: 9:59 Vrijdag 25 Okt
00:00 45 J/kg 6.8 K 0 % 0 % 0 % 0 m²/s² 0 0 13.49 2
01:00 72 J/kg 6.9 K 0 % 0 % 0 % 0 m²/s² 0 0 14.28 1
02:00 97 J/kg 6.4 K 0 % 0 % 0 % 0 m²/s² 0 0 11.41 2
03:00 100 J/kg 7.1 K 0 % 0 % 0 % 0 m²/s² 0 0 14.51 2
04:00 88 J/kg 8.4 K 0 % 0 % 0 % 0 m²/s² 0 0 16.68 3
05:00 91 J/kg 9.1 K 0 % 0 % 0 % 0 m²/s² 0 0 17.77 3
06:00 58 J/kg 11.1 K 0 % 0 % 0 % 0 m²/s² 0 0 18.3 2
07:00 14 J/kg 12.5 K 0 % 0 % 0 % 0 m²/s² 0 0 17.9 2
08:00 9 J/kg 13.1 K 0 % 0 % 0 % 0 m²/s² 0 0 17.96 3
09:00 3 J/kg 13.5 K 0 % 0 % 0 % 0 m²/s² 0 0 16.65 3
10:00 18 J/kg 13.0 K 0 % 0 % 0 % 0 m²/s² 0 0 15.52 3
11:00 35 J/kg 12.2 K 0 % 0 % 0 % 0 m²/s² 0 0 14.45 3
12:00 35 J/kg 12.3 K 0 % 0 % 0 % 0 m²/s² 0 0 14.16 3
13:00 32 J/kg 12.0 K 0 % 0 % 0 % 0 m²/s² 0 0 13.44 3
14:00 38 J/kg 12.0 K 0 % 0 % 0 % 0 m²/s² 0 0 13.08 3
15:00 49 J/kg 12.1 K 0 % 0 % 0 % 0 m²/s² 0 0 12.85 3
16:00 17 J/kg 12.0 K 0 % 0 % 0 % 0 m²/s² 0 0 12.57 3
17:00 0 J/kg 12.5 K 0 % 0 % 0 % 0 m²/s² 0 0 14.12 3
18:00 0 J/kg 12.0 K 0 % 0 % 0 % 0 m²/s² 0 0 14.79 61
19:00 0 J/kg 11.0 K 0 % 0 % 0 % 0 m²/s² 0 0 14.21 3
20:00 0 J/kg 9.3 K 0 % 0 % 0 % 0 m²/s² 0 0 11.46 3
21:00 0 J/kg 8.4 K 0 % 0 % 0 % 0 m²/s² 0 0 9.54 3
22:00 0 J/kg 7.6 K 0 % 0 % 0 % 0 m²/s² 0 0 8.05 3
23:00 0 J/kg 8.1 K 0 % 0 % 0 % 0 m²/s² 0 0 8.46 3
 08:27     18:22    Daglengte: 9:55 Zaterdag 26 Okt
00:00 0 J/kg 8.9 K 0 % 0 % 0 % 0 m²/s² 0 0 11.27 3
01:00 0 J/kg 9.4 K 0 % 0 % 0 % 0 m²/s² 0 0 11.29 3
02:00 0 J/kg 7.7 K 0 % 0 % 0 % 0 m²/s² 0 0 7.7 3
03:00 0 J/kg 4.5 K 0 % 0 % 0 % 0 m²/s² 0 0 4.5 61
04:00 0 J/kg 5.5 K 0 % 0 % 0 % 0 m²/s² 0 0 5.5 61
05:00 0 J/kg 5.7 K 0 % 0 % 0 % 0 m²/s² 0 0 5.79 61
06:00 0 J/kg 6.0 K 0 % 0 % 0 % 0 m²/s² 0 0 6.09 61
07:00 4 J/kg 7.4 K 0 % 0 % 0 % 0 m²/s² 0 0 7.4 61
08:00 5 J/kg 8.7 K 0 % 0 % 0 % 0 m²/s² 0 0 8.73 61
Temp Baro Wind Neerslag
  EWN Forecast EWN WRFDA DWD ICON FMI HIRLAM MET Norway GFS
 08:22     18:28    Daglengte: 10:06 Vandaag
11:00 10.2° 1018.1 hPa 2.7 m/s 0.0 mm 9.5° 1017.5 hPa 3.1 m/s 0.0 mm 10.0° 1018.7 hPa 2.4 m/s -2.0 mm 11.5° 1018.5 hPa 2.6 m/s 0.0 mm 10.7° 1017.8 hPa 3.7 m/s 0.0 mm 11.8° 1017.3 hPa 3.4 m/s
14:00 12.5° 1016.0 hPa 3.7 m/s 0.0 mm 13.0° 1016.2 hPa 3.6 m/s 0.0 mm 12.8° 1016.1 hPa 3.8 m/s 0.0 mm 13.1° 1016.4 hPa 3.7 m/s 0.0 mm 12.6° 1015.9 hPa 3.5 m/s 0.0 mm 14.0° 1015.5 hPa 3.7 m/s
17:00 13.6° 1012.5 hPa 4.5 m/s 0.0 mm 14.7° 1012.0 hPa 4.4 m/s 0.0 mm 13.4° 1012.2 hPa 3.8 m/s 0.0 mm 14.1° 1013.5 hPa 4.0 m/s 0.0 mm 13.9° 1012.5 hPa 4.6 m/s 0.0 mm 14.4° 1012.0 hPa 3.9 m/s
20:00 12.8° 1011.0 hPa 4.2 m/s 0.0 mm 13.3° 1010.9 hPa 4.2 m/s 0.0 mm 12.6° 1011.0 hPa 3.4 m/s 0.0 mm 12.9° 1011.5 hPa 3.1 m/s 0.0 mm 13.1° 1010.9 hPa 4.4 m/s 0.0 mm 12.9° 1010.8 hPa 3.9 m/s
23:00 12.9° 1008.8 hPa 4.0 m/s 0.0 mm 13.3° 1008.5 hPa 4.6 m/s 0.0 mm 12.2° 1008.8 hPa 2.9 m/s 0.0 mm 13.0° 1008.9 hPa 4.1 m/s 0.0 mm 13.7° 1008.9 hPa 4.1 m/s 0.0 mm 13.0° 1008.5 hPa 2.9 m/s
 08:23     18:26    Daglengte: 10:03 Morgen
02:00 12.6° 1007.2 hPa 3.2 m/s 0.0 mm 12.8° 1007.7 hPa 2.6 m/s 0.0 mm 12.3° 1007.0 hPa 2.2 m/s 0.0 mm 12.6° 1006.9 hPa 2.4 m/s 0.0 mm 13.4° 1008.0 hPa 4.1 m/s 0.0 mm 12.6° 1007.2 hPa 2.8 m/s
05:00 12.2° 1005.6 hPa 3.1 m/s 0.0 mm 11.8° 1006.1 hPa 2.7 m/s 0.0 mm 11.7° 1005.6 hPa 2.1 m/s 0.0 mm 12.5° 1004.7 hPa 3.3 m/s 0.0 mm 13.1° 1006.3 hPa 4.1 m/s 0.0 mm 12.5° 1004.9 hPa 2.9 m/s
08:00 12.0° 1004.9 hPa 3.4 m/s 0.0 mm 11.3° 1004.6 hPa 3.2 m/s 0.0 mm 12.4° 1005.0 hPa 2.7 m/s 0.0 mm 11.9° 1003.4 hPa 3.0 m/s 0.0 mm 12.6° 1006.1 hPa 3.5 m/s 0.0 mm 12.6° 1005.2 hPa 3.2 m/s
11:00 14.1° 1005.3 hPa 5.4 m/s 0.0 mm 14.5° 1004.2 hPa 5.6 m/s 0.0 mm 14.4° 1004.9 hPa 3.4 m/s 0.0 mm 13.6° 1003.9 hPa 3.9 m/s 0.0 mm 14.6° 1006.6 hPa 5.9 m/s 0.0 mm 14.5° 1005.0 hPa 2.9 m/s
14:00 16.3° 1004.5 hPa 6.1 m/s 0.0 mm 19.1° 1001.5 hPa 7.4 m/s 0.0 mm 16.6° 1004.1 hPa 3.9 m/s 0.1 mm 17.3° 1003.8 hPa 6.7 m/s 0.0 mm 16.0° 1006.2 hPa 5.9 m/s 0.3 mm 18.0° 1004.1 hPa 5.3 m/s
17:00 17.2° 1004.3 hPa 7.1 m/s 0.0 mm 18.1° 1001.4 hPa 7.9 m/s 0.0 mm 17.5° 1003.4 hPa 4.5 m/s 0.0 mm 18.0° 1004.1 hPa 5.1 m/s 0.0 mm 17.0° 1006.2 hPa 8.1 m/s 0.0 mm 17.7° 1002.8 hPa 6.3 m/s
20:00 15.2° 1005.1 hPa 7.7 m/s 0.0 mm 16.3° 1001.3 hPa 9.1 m/s 0.0 mm 15.1° 1004.3 hPa 4.8 m/s 0.0 mm 16.1° 1004.8 hPa 3.8 m/s 0.0 mm 15.1° 1008.1 hPa 8.4 m/s 0.3 mm 14.8° 1003.1 hPa 6.5 m/s
23:00 13.3° 1007.5 hPa 6.6 m/s 0.4 mm 13.1° 1007.1 hPa 6.8 m/s 0.8 mm 13.9° 1005.3 hPa 7.5 m/s 0.1 mm 15.7° 1005.3 hPa 4.8 m/s 0.0 mm 13.1° 1010.5 hPa 6.3 m/s 0.7 mm 13.1° 1006.9 hPa 9.1 m/s
 08:25     18:24    Daglengte: 9:59 Vrijdag 25 Okt
02:00 13.0° 1010.0 hPa 6.1 m/s 0.0 mm 13.4° 1009.9 hPa 5.6 m/s 1.1 mm 12.3° 1008.7 hPa 4.3 m/s 0.0 mm 13.8° 1007.0 hPa 5.9 m/s 0.0 mm 13.1° 1012.6 hPa 6.2 m/s 0.9 mm 11.9° 1010.5 hPa 4.9 m/s
05:00 11.7° 1012.4 hPa 5.4 m/s 0.0 mm 12.8° 1012.3 hPa 5.2 m/s 1.2 mm 11.7° 1011.1 hPa 3.4 m/s 0.0 mm 11.7° 1014.6 hPa 5.0 m/s 0.0 mm 11.7° 1012.7 hPa 5.3 m/s
08:00 10.9° 1014.8 hPa 4.8 m/s 0.0 mm 9.5° 1014.8 hPa 3.1 m/s 1.2 mm 11.0° 1013.5 hPa 3.0 m/s 0.0 mm 11.4° 1016.8 hPa 4.7 m/s 0.0 mm 11.3° 1014.8 hPa 5.0 m/s
11:00 12.8° 1016.9 hPa 5.5 m/s 0.0 mm 13.4° 1016.6 hPa 4.7 m/s 1.2 mm 12.1° 1015.2 hPa 5.4 m/s 0.0 mm 13.1° 1019.0 hPa 5.3 m/s 0.0 mm 12.8° 1016.4 hPa 5.0 m/s
14:00 14.5° 1017.3 hPa 6.8 m/s 0.0 mm 14.9° 1016.9 hPa 6.0 m/s 1.2 mm 13.6° 1014.5 hPa 6.0 m/s 0.0 mm 15.0° 1019.4 hPa 6.9 m/s 0.0 mm 14.3° 1016.7 hPa 5.4 m/s
17:00 14.2° 1016.1 hPa 6.4 m/s 0.0 mm 14.9° 1014.1 hPa 6.9 m/s 1.3 mm 13.1° 1011.1 hPa 7.4 m/s 0.0 mm 14.6° 1017.6 hPa 6.3 m/s 0.0 mm 14.0° 1013.5 hPa 5.5 m/s
20:00 13.5° 1014.0 hPa 8.6 m/s 0.0 mm 13.7° 1011.3 hPa 8.7 m/s 1.3 mm 13.3° 1008.3 hPa 8.7 m/s 0.3 mm 13.8° 1015.8 hPa 8.7 m/s 0.0 mm 14.3° 1010.5 hPa 7.9 m/s
23:00 13.7° 1012.2 hPa 9.4 m/s 0.0 mm 13.7° 1009.0 hPa 9.2 m/s 1.3 mm 14.6° 1005.7 hPa 9.1 m/s 0.0 mm 13.7° 1014.3 hPa 9.3 m/s 14.7° 1008.6 hPa 10.3 m/s
 08:27     18:22    Daglengte: 9:55 Zaterdag 26 Okt
02:00 13.9° 1010.7 hPa 10.1 m/s 0.2 mm 14.0° 1007.0 hPa 10.2 m/s 1.3 mm 15.8° 1005.0 hPa 9.4 m/s 0.2 mm 13.6° 1012.9 hPa 9.9 m/s 15.4° 1006.1 hPa 11.1 m/s
05:00 14.2° 1009.0 hPa 9.3 m/s 1.4 mm 14.4° 1006.3 hPa 10.3 m/s 1.4 mm 14.7° 1004.3 hPa 6.9 m/s 1.5 mm 13.9° 1012.3 hPa 9.7 m/s 15.3° 1005.8 hPa 10.7 m/s
08:00 13.1° 1009.3 hPa 6.8 m/s 4.9 mm 12.0° 1007.2 hPa 4.8 m/s 6.0 mm 11.4° 1006.1 hPa 2.8 m/s 4.4 mm 14.3° 1011.8 hPa 9.4 m/s 12.0° 1007.5 hPa 5.3 m/s
11:00 14.9° 1011.2 hPa 8.9 m/s 5.3 mm 15.2° 1011.3 hPa 9.4 m/s 10.9° 1009.9 hPa 2.9 m/s 5.3 mm
14:00 15.3° 1011.1 hPa 9.0 m/s 5.9 mm 15.7° 1011.1 hPa 9.4 m/s 10.6° 1011.4 hPa 4.4 m/s 5.9 mm
17:00 15.1° 1011.1 hPa 9.1 m/s 6.3 mm 15.6° 1011.0 hPa 9.6 m/s 9.5° 1011.6 hPa 4.3 m/s 6.3 mm
20:00 14.9° 1011.2 hPa 9.2 m/s 6.5 mm 15.4° 1011.0 hPa 9.7 m/s 9.1° 1013.1 hPa 3.8 m/s 6.5 mm
23:00 12.1° 1013.3 hPa 7.0 m/s 6.6 mm 12.4° 1013.1 hPa 7.2 m/s 8.6° 1014.4 hPa 4.9 m/s 6.6 mm
 08:29     18:20    Daglengte: 9:51 Zondag 27 Okt
02:00 9.4° 1015.3 hPa 4.7 m/s 6.7 mm 9.5° 1015.3 hPa 4.7 m/s 8.0° 1015.3 hPa 4.7 m/s 6.7 mm
04:00 9.3° 1016.8 hPa 3.9 m/s 6.7 mm 9.4° 1016.8 hPa 3.8 m/s 8.2° 1016.2 hPa 5.8 m/s 6.7 mm
07:00 9.2° 1018.3 hPa 3.1 m/s 6.7 mm 9.3° 1018.4 hPa 2.8 m/s 7.7° 1017.0 hPa 6.4 m/s 6.7 mm
10:00 10.5° 1020.2 hPa 3.9 m/s 6.8 mm 10.6° 1020.3 hPa 3.7 m/s 9.7° 1018.8 hPa 6.5 m/s 6.8 mm
13:00 11.8° 1022.0 hPa 4.8 m/s 7.0 mm 11.9° 1022.2 hPa 4.6 m/s 10.3° 1020.1 hPa 6.8 m/s 7.0 mm
16:00 10.3° 1022.7 hPa 3.5 m/s 7.0 mm 10.4° 1022.9 hPa 3.3 m/s 9.8° 1020.7 hPa 5.2 m/s 7.0 mm
19:00 8.8° 1023.3 hPa 2.2 m/s 7.3 mm 8.8° 1023.5 hPa 2.0 m/s 8.7° 1021.6 hPa 4.1 m/s 7.3 mm
22:00 8.1° 1023.5 hPa 2.1 m/s 7.4 mm 8.1° 1023.6 hPa 2.0 m/s 7.6° 1022.8 hPa 3.5 m/s 7.4 mm
 08:31     18:18    Daglengte: 9:47 Maandag 28 Okt
01:00 7.4° 1023.6 hPa 2.1 m/s 7.5 mm 7.4° 1023.7 hPa 2.0 m/s 6.8° 1023.0 hPa 3.7 m/s 7.5 mm
04:00 6.8° 1023.3 hPa 2.7 m/s 7.5 mm 6.8° 1023.4 hPa 2.6 m/s 6.0° 1023.0 hPa 3.3 m/s 7.5 mm
07:00 6.3° 1023.1 hPa 3.2 m/s 7.5 mm 6.3° 1023.0 hPa 3.2 m/s 6.2° 1023.6 hPa 3.4 m/s 7.5 mm
10:00 8.5° 1023.4 hPa 3.6 m/s 7.6 mm 8.5° 1023.3 hPa 3.6 m/s 9.1° 1024.3 hPa 3.9 m/s 7.6 mm
13:00 10.7° 1023.7 hPa 4.1 m/s 7.8 mm 10.7° 1023.6 hPa 4.0 m/s 10.3° 1025.0 hPa 5.0 m/s 7.8 mm
16:00 8.8° 1024.1 hPa 3.6 m/s 7.9 mm 8.8° 1024.0 hPa 3.5 m/s 9.2° 1025.0 hPa 4.2 m/s 7.9 mm
19:00 6.8° 1024.5 hPa 3.1 m/s 8.0 mm 6.8° 1024.4 hPa 3.1 m/s 6.3° 1025.4 hPa 3.2 m/s 8.0 mm
22:00 6.1° 1024.8 hPa 2.7 m/s 8.0 mm 6.2° 1024.7 hPa 2.7 m/s 5.9° 1026.4 hPa 3.2 m/s 8.0 mm
 08:33     18:16    Daglengte: 9:43 Dinsdag 29 Okt
01:00 5.5° 1025.0 hPa 2.3 m/s 8.1 mm 5.5° 1024.9 hPa 2.3 m/s 6.1° 1026.4 hPa 2.7 m/s 8.1 mm
04:00 5.4° 1025.3 hPa 2.6 m/s 8.1 mm 5.4° 1025.2 hPa 2.6 m/s 5.7° 1026.9 hPa 2.5 m/s 8.1 mm
07:00 5.3° 1025.6 hPa 2.9 m/s 8.2 mm 5.3° 1025.4 hPa 3.0 m/s 5.4° 1028.3 hPa 2.2 m/s 8.2 mm
10:00 7.8° 1027.0 hPa 3.9 m/s 8.3 mm 7.7° 1026.7 hPa 3.9 m/s 8.7° 1030.0 hPa 4.4 m/s 8.3 mm
13:00 10.0° 1028.3 hPa 4.8 m/s 8.4 mm 10.1° 1028.0 hPa 4.8 m/s 8.6° 1031.8 hPa 5.1 m/s 8.4 mm
16:00 8.4° 1029.8 hPa 4.5 m/s 8.4 mm 8.4° 1029.6 hPa 4.5 m/s 7.6° 1032.3 hPa 4.4 m/s 8.4 mm
19:00 6.7° 1031.4 hPa 4.3 m/s 8.4 mm 6.8° 1031.2 hPa 4.3 m/s 5.2° 1034.0 hPa 4.4 m/s 8.4 mm
22:00 5.8° 1032.6 hPa 4.0 m/s 8.4 mm 5.9° 1032.4 hPa 4.0 m/s 4.7° 1035.2 hPa 5.1 m/s 8.4 mm
 08:34     18:14    Daglengte: 9:40 Woensdag 30 Okt
01:00 4.9° 1033.7 hPa 3.6 m/s 8.4 mm 5.0° 1033.6 hPa 3.6 m/s 3.7° 1035.1 hPa 4.0 m/s 8.4 mm
04:00 3.5° 1033.6 hPa 3.0 m/s 8.4 mm 3.5° 1033.6 hPa 2.9 m/s 3.2° 1034.1 hPa 4.1 m/s 8.4 mm
07:00 2.2° 1033.6 hPa 2.3 m/s 8.4 mm 2.1° 1033.6 hPa 2.1 m/s 2.9° 1033.2 hPa 3.9 m/s 8.4 mm
13:00 7.7° 1033.5 hPa 2.2 m/s 8.6 mm 8.0° 1033.6 hPa 2.1 m/s 4.6° 1032.3 hPa 3.1 m/s 8.6 mm
19:00 4.6° 1031.2 hPa 2.6 m/s 8.7 mm 4.7° 1031.2 hPa 2.6 m/s 3.3° 1031.5 hPa 2.2 m/s 8.7 mm
 08:36     18:12    Daglengte: 9:36 Donderdag 31 Okt
01:00 2.3° 1029.9 hPa 1.3 m/s 8.7 mm 2.4° 1029.8 hPa 1.3 m/s 1.8° 1030.9 hPa 1.8 m/s 8.7 mm
07:00 2.4° 1027.0 hPa 0.8 m/s 8.7 mm 2.5° 1026.9 hPa 0.7 m/s 0.8° 1028.0 hPa 2.2 m/s 8.7 mm
13:00 9.1° 1024.5 hPa 1.3 m/s 8.7 mm 9.4° 1024.6 hPa 1.1 m/s 5.5° 1023.6 hPa 3.3 m/s 8.7 mm
19:00 6.0° 1021.2 hPa 1.9 m/s 8.8 mm 6.2° 1021.5 hPa 1.8 m/s 4.2° 1017.8 hPa 2.7 m/s 8.8 mm
 08:38     18:10    Daglengte: 9:32 Vrijdag 01 Nov
01:00 5.5° 1017.0 hPa 2.4 m/s 9.8 mm 5.7° 1017.5 hPa 2.2 m/s 3.7° 1011.7 hPa 4.0 m/s 9.8 mm
07:00 6.2° 1013.3 hPa 4.0 m/s 10.8 mm 6.4° 1013.9 hPa 3.8 m/s 4.2° 1006.8 hPa 5.9 m/s 10.8 mm
13:00 9.4° 1013.3 hPa 6.4 m/s 11.2 mm 9.6° 1013.7 hPa 6.5 m/s 7.6° 1008.6 hPa 5.5 m/s 11.2 mm
19:00 7.8° 1010.0 hPa 7.2 m/s 11.5 mm 7.8° 1010.0 hPa 7.2 m/s 11.5 mm
 08:40     18:08    Daglengte: 9:28 Zaterdag 02 Nov
01:00 7.2° 1011.8 hPa 5.0 m/s 11.8 mm 7.2° 1011.8 hPa 5.0 m/s 11.8 mm
07:00 10.1° 1013.4 hPa 3.1 m/s 1.1 mm
13:00 11.2° 1012.2 hPa 4.4 m/s 1.1 mm
19:00 10.7° 1010.7 hPa 5.7 m/s 1.7 mm
 08:42     18:07    Daglengte: 9:25 Zondag 03 Nov
01:00 9.2° 1011.6 hPa 4.4 m/s 0.9 mm
07:00 8.5° 1012.2 hPa 4.2 m/s 1.3 mm
13:00 9.8° 1013.2 hPa 3.2 m/s 1.3 mm
19:00 8.6° 1013.4 hPa 2.4 m/s 0.9 mm
 08:44     18:05    Daglengte: 9:21 Maandag 04 Nov
01:00 8.0° 1013.2 hPa 2.6 m/s 0.9 mm
07:00 7.9° 1013.6 hPa 3.2 m/s 0.6 mm
13:00 9.4° 1014.9 hPa 3.6 m/s 1.3 mm
19:00 8.6° 1016.0 hPa 3.1 m/s 0.9 mm
 08:46     18:03    Daglengte: 9:17 Dinsdag 05 Nov
01:00 8.0° 1016.6 hPa 1.6 m/s 0.8 mm
07:00 7.4° 1017.0 hPa 2.6 m/s 0.8 mm
13:00 8.8° 1018.3 hPa 2.0 m/s 0.5 mm
19:00 8.0° 1018.4 hPa 0.5 m/s 0.5 mm
 08:47     18:01    Daglengte: 9:14 Woensdag 06 Nov
01:00 7.3° 1018.2 hPa 1.2 m/s 0.5 mm
07:00 6.9° 1017.3 hPa 0.9 m/s 0.6 mm
13:00 8.5° 1017.0 hPa 0.9 m/s 1.0 mm
19:00 8.0° 1016.5 hPa 0.6 m/s 0.2 mm
 08:49     17:59    Daglengte: 9:10 Donderdag 07 Nov
01:00 7.2° 1016.8 hPa 1.4 m/s 0.8 mm
07:00 6.6° 1016.3 hPa 2.5 m/s 0.1 mm
FMI Hirlam - 7.5 km EWN WRFDA - 12 km DWD ICON - 7 km GFS - 25 km Basiskaart






























































Updatetijd (Europe/Brussels) Resolutie Lengte Stap
FMI Hirlam 07:00, 13:00, 19:00, 01:00 7.5 km 49h 1h
EWN WRFDA 03:30, 09:30, 15:30, 21:30 12 km 73h 1h
DWD ICON 05:45, 11:45, 17:45, 23:45 7 km 75h 1h
GFS 02:30, 08:30, 14:30, 20:30 25 km 237h 3h
30+ mm
25-30 mm
20-25 mm
15-20 mm
10-15 mm
6-10 mm
4-6 mm
2-4 mm
1-2 mm
0.5-1 mm
0.2-0.5 mm
0.1-0.2 mm
30+ mm
25-30 mm
20-25 mm
15-20 mm
10-15 mm
6-10 mm
4-6 mm
2-4 mm
1-2 mm
0.5-1 mm
0.2-0.5 mm
0.1-0.2 mm
Sneeuwval
Natte sneeuw
Hagel
Vorst
30+ mm
25-30 mm
20-25 mm
15-20 mm
10-15 mm
6-10 mm
4-6 mm
2-4 mm
1-2 mm
0.5-1 mm
0.2-0.5 mm
0.1-0.2 mm
Sneeuwval
Natte sneeuw
Hagel
Vorst
Onweer
50 mm
40 mm
30 mm
26 mm
22 mm
18 mm
14 mm
10 mm
9 mm
8 mm
7 mm
6 mm
5 mm
4.5 mm
4 mm
3.5 mm
3 mm
2.5 mm
2 mm
1.5 mm
1 mm
0.8 mm
0.6 mm
0.4 mm
0.2 mm
0.05 mm
35°
30°
25°
20°
15°
10°
-5°
-10°
-15°
-20°
-25°
-30°
-35°
33> m/s
29 m/s
25 m/s
21 m/s
17 m/s
14 m/s
11 m/s
8 m/s
5 m/s
3 m/s
0 m/s
2600 J/kg
2400 J/kg
2200 J/kg
2000 J/kg
1800 J/kg
1600 J/kg
1400 J/kg
1200 J/kg
1000 J/kg
800 J/kg
600 J/kg
400 J/kg
200 J/kg
70 dBZ
65 dBZ
60 dBZ
55 dBZ
50 dBZ
45 dBZ
40 dBZ
35 dBZ
30 dBZ
25 dBZ
20 dBZ
15 dBZ
10 dBZ
5 dBZ
-1 K
-2 K
-3 K
-4 K
-5 K
-6 K
-7 K
-8 K
-9 K
950 m²/s²
900 m²/s²
850 m²/s²
800 m²/s²
750 m²/s²
700 m²/s²
650 m²/s²
600 m²/s²
550 m²/s²
500 m²/s²
450 m²/s²
400 m²/s²
350 m²/s²
300 m²/s²
250 m²/s²
200 m²/s²
150 m²/s²
100 m²/s²
46 m/s
44 m/s
42 m/s
40 m/s
38 m/s
36 m/s
34 m/s
32 m/s
30 m/s
28 m/s
26 m/s
24 m/s
22 m/s
20 m/s
16 m/s
12 m/s
8 m/s
4 m/s
30 m/s
28 m/s
26 m/s
24 m/s
22 m/s
20 m/s
18 m/s
16 m/s
14 m/s
12 m/s
10 m/s
8 m/s
6 m/s
4 m/s
2 m/s
3.0
2.8
2.6
2.4
2.2
2.0
1.8
1.6
1.4
1.2
1.0
0.8
0.6
0.4
0.2
15
14
13
12
11
10
9
8
7
6
5
4
3
2
1
90%
80%
70%
60%
50%
40%
30%
20%
10%
42
40
38
36
34
32
30
28
26
24
22
20
18
16
14
12
90+ cm
80-90 cm
70-80 cm
60-70 cm
50-60 cm
40-50 cm
30-40 cm
20-30 cm
10-20 cm
1-10 cm
Sneeuwval
Natte sneeuw
Regen
>120 mm
115 mm
110 mm
105 mm
100 mm
95 mm
90 mm
85 mm
80 mm
75 mm
70 mm
65 mm
60 mm
55 mm
50 mm
45 mm
45 mm
40 mm
35 mm
30 mm
25 mm
20 mm
15 mm
10 mm
5 mm
0.1 mm
960 hPa
880 hPa
800 hPa
720 hPa
640 hPa
560 hPa
584 gpdm
568 gpdm
552 gpdm
536 gpdm
520 gpdm
504 gpdm
488 gpdm
Extreem zwaar Noodweer Kans op onweer
15% 15% 5% 50% 15%

Dag




Kaart






35°
30°
25°
20°
15°
10°
-5°
-10°
-15°
-20°
-25°
-30°
-35°
33> m/s
29 m/s
25 m/s
21 m/s
17 m/s
14 m/s
11 m/s
8 m/s
5 m/s
3 m/s
0 m/s
Extreem zwaar Noodweer Kans op onweer
15% 15% 5% 50% 15%
>120 mm
115 mm
110 mm
105 mm
100 mm
95 mm
90 mm
85 mm
80 mm
75 mm
70 mm
65 mm
60 mm
55 mm
50 mm
45 mm
45 mm
40 mm
35 mm
30 mm
25 mm
20 mm
15 mm
10 mm
5 mm
0.1 mm
Onweer risico kaarten - De groene en gele kleur geeft de kans op onweer aan binnen 40 km van een punt. Oranje, rood en violet hebben hetzelfde niveau zoals je het ziet op estofex.org waaronder ook de kans op hagel en supercells.

dBZ - dBZ staat voor decibel ten opzichte van Z.

Cape - Convective available potential energy (CAPE), is de totale hoeveelheid energie die een luchtpakketje nodig heeft om zover mogelijk te stijgen in de atmosfeer.

K Index - K-Index wordt berekend door de Vertical Totals (VT) en het verschil tussen de 850 hPa temperatuur en de 700 hPa dauwpuntsdepressie (Tdd 700) bij elkaar op te tellen.

TT Index - Convectie index wordt gebruikt voor het voorspellen van zware buien of onweer.

WRF - The Weather Research and Forecasting (WRF) is een volgende generatie mesoscale numeriek weersvoorspelling systeem ontworpen om zowel de operationele planning als het atmosferisch onderzoek te dienen. WRF is a cooperatie tussen het National Center for Atmospheric Research (NCAR), National Centers for Environmental Prediction (NCEP), Forecast Systems Laboratory (FSL), Air Force Weather Agency (AFWA), Naval Research Laboratory, University of Oklahoma, en de Federal Aviation Administration (FAA). Deze software draait op onze server.

WRFDA - Een meer geavanceerde versie van WRF

Arome - Het 2.5 km Arome model. Verzorgd door het Noors Meteorologisch Instituut.

MET Norway - De proff-default 4km meteorological data is een beste keus selectie van meteorologische modellen gebruikt door met.no die zijn geïnterpoleerd tot een gemeenschappelijke dataset. Verzorgd door het Noorse Meteorologisch Instituut.

SMHI - Het Hirlam model verzorgd door het Zweeds meteorologisch instituut.

FMI - Het Hirlam model verzorgd door het Fins meteorologisch instituut. Dekking alleen Finland.

GFS - Het Global Forecast Systeem (GFS) is een wereldwijd numerieke weersvoorspelling computermodel, gerund door NOAA.

GEM-GDPS - Het GEM-GDPS is a wereldwijd numeriek weersvoorspelling computermodel verzorgd door het Canadees Meteorologisch Centrum.

Credits/Info: Dank aan Stefan Gofferje van sääkeskus.fi voor enkele formules van GrADS. Info: Wikipedia.

Betrouwbaarheid van de verwachting

NB! 2015-03-29: Rebuilding the accuracy-test!

EWNACC
Day 1 Good forecasts

Dag 1 Tmax

Dag 2 Tmax

Geladen verwachtingen TOP 50

Totaal geladen verwachtingen:
Plaats Latitude Longitude Verwachtingen Plaats Latitude Longitude Verwachtingen